N715VM TXKF-TJSJ

Flight info

Callsign N715VM
Flight time N/A
Altitude 40000
Route M083F400 BORNN1 BORNN DCT CEDRR DCT GECAL L458 CHEDR/N0481F400 L458 THANK DCT SAALR RTE7 SJU DCT
Aircraft GLF6/M-SFGHIRWXY/S

Departure

Time 2026-04-14 22:24
Airport L.F. Wade International Airport (TXKF)

Arrival

Time N/A
Airport Luis Munoz Marin International Airport (TJSJ)
Time Latitude Longitude Altitude Speed Heading
2026-04-14 22:20 32.36821 -64.68597 25 ft 0 kts 189°
2026-04-14 22:20 32.36820 -64.68597 25 ft 2 kts 191°
2026-04-14 22:20 32.36803 -64.68641 25 ft 9 kts 283°
2026-04-14 22:20 32.36813 -64.68707 25 ft 7 kts 275°
2026-04-14 22:21 32.36784 -64.68742 25 ft 5 kts 202°
2026-04-14 22:21 32.36760 -64.68776 25 ft 4 kts 242°
2026-04-14 22:21 32.36746 -64.68806 24 ft 3 kts 241°
2026-04-14 22:21 32.36736 -64.68828 24 ft 2 kts 244°
2026-04-14 22:22 32.36716 -64.68886 24 ft 11 kts 248°
2026-04-14 22:22 32.36688 -64.68971 24 ft 10 kts 249°
2026-04-14 22:22 32.36663 -64.69044 25 ft 8 kts 247°
2026-04-14 22:22 32.36642 -64.69106 25 ft 7 kts 247°
2026-04-14 22:23 32.36621 -64.69132 25 ft 0 kts 160°
2026-04-14 22:23 32.36618 -64.69119 25 ft 0 kts 98°
2026-04-14 22:23 32.36618 -64.69117 25 ft 2 kts 99°
2026-04-14 22:23 32.36582 -64.68883 24 ft 69 kts 103°
2026-04-14 22:24 32.36422 -64.67956 26 ft 155 kts 102°
2026-04-14 22:24 32.36150 -64.66598 763 ft 176 kts 101°
2026-04-14 22:24 32.35916 -64.65429 2160 ft 147 kts 101°
2026-04-14 22:24 32.35670 -64.64166 1896 ft 166 kts 99°
2026-04-14 22:25 32.35483 -64.62826 1664 ft 162 kts 97°
2026-04-14 22:25 32.35290 -64.61555 1426 ft 164 kts 98°
2026-04-14 22:25 32.35056 -64.60091 667 ft 194 kts 99°
2026-04-14 22:25 32.34757 -64.58482 762 ft 219 kts 111°
2026-04-14 22:26 32.33719 -64.57396 2480 ft 206 kts 158°
2026-04-14 22:26 32.32301 -64.57278 3440 ft 217 kts 186°
2026-04-14 22:26 32.30845 -64.57564 4584 ft 217 kts 188°
2026-04-14 22:26 32.29352 -64.57885 5641 ft 222 kts 189°
2026-04-14 22:27 32.27840 -64.58229 6666 ft 226 kts 190°
2026-04-14 22:27 32.26317 -64.58580 7673 ft 230 kts 191°
2026-04-14 22:27 32.24751 -64.58945 8659 ft 233 kts 192°
2026-04-14 22:27 32.23164 -64.59409 9646 ft 236 kts 195°
2026-04-14 22:28 32.21576 -64.59895 10602 ft 241 kts 195°
2026-04-14 22:28 32.19944 -64.60391 11527 ft 245 kts 196°
2026-04-14 22:28 32.18286 -64.60895 12439 ft 249 kts 196°
2026-04-14 22:28 32.16612 -64.61404 13298 ft 255 kts 196°
2026-04-14 22:29 32.14747 -64.61971 13396 ft 298 kts 196°
2026-04-14 22:29 32.12704 -64.62589 14177 ft 310 kts 196°
2026-04-14 22:29 32.10597 -64.63227 15049 ft 321 kts 195°
2026-04-14 22:29 32.08410 -64.63889 16041 ft 328 kts 195°
2026-04-14 22:30 32.06212 -64.64555 17010 ft 334 kts 196°
2026-04-14 22:30 32.03932 -64.65244 18000 ft 340 kts 196°
2026-04-14 22:30 32.01638 -64.65939 19011 ft 344 kts 196°
2026-04-14 22:30 31.99309 -64.66642 20030 ft 349 kts 196°
2026-04-14 22:31 31.96971 -64.67348 21032 ft 354 kts 196°
2026-04-14 22:31 31.94567 -64.68075 21994 ft 360 kts 196°
2026-04-14 22:31 31.92151 -64.68803 22931 ft 365 kts 196°
2026-04-14 22:31 31.89656 -64.69556 23727 ft 376 kts 196°
2026-04-14 22:32 31.87015 -64.70354 23705 ft 410 kts 195°
2026-04-14 22:32 31.84139 -64.71219 24029 ft 432 kts 195°
2026-04-14 22:32 31.81208 -64.72100 24819 ft 440 kts 195°
2026-04-14 22:32 31.78260 -64.72986 25627 ft 447 kts 196°
2026-04-14 22:33 31.75240 -64.73894 26490 ft 452 kts 196°
2026-04-14 22:33 31.72180 -64.74814 27292 ft 457 kts 196°
2026-04-14 22:33 31.69084 -64.75743 28075 ft 462 kts 196°
2026-04-14 22:33 31.65942 -64.76686 28840 ft 467 kts 196°
2026-04-14 22:34 31.62789 -64.77631 29578 ft 472 kts 196°
2026-04-14 22:34 31.59585 -64.78592 30306 ft 477 kts 196°
2026-04-14 22:34 31.56345 -64.79562 31012 ft 481 kts 196°
2026-04-14 22:34 31.53089 -64.80536 31689 ft 485 kts 196°
2026-04-14 22:35 31.49853 -64.81503 32492 ft 485 kts 196°
2026-04-14 22:35 31.46571 -64.82484 33333 ft 484 kts 196°
2026-04-14 22:35 31.43308 -64.83457 34188 ft 482 kts 196°
2026-04-14 22:35 31.40082 -64.84420 35017 ft 480 kts 196°
2026-04-14 22:36 31.36870 -64.85378 35822 ft 478 kts 196°
2026-04-14 22:36 31.33665 -64.86332 36618 ft 476 kts 196°
2026-04-14 22:36 31.30432 -64.87295 37333 ft 475 kts 196°
2026-04-14 22:36 31.27242 -64.88244 37992 ft 475 kts 196°
2026-04-14 22:37 31.24058 -64.89191 38647 ft 474 kts 196°
2026-04-14 22:37 31.20871 -64.90138 39316 ft 472 kts 196°
2026-04-14 22:37 31.17864 -64.91024 41486 ft 422 kts 197°
2026-04-14 22:37 31.14939 -64.91894 39619 ft 471 kts 197°
2026-04-14 22:38 31.11812 -64.92821 40685 ft 447 kts 197°
2026-04-14 22:38 31.08860 -64.93694 40915 ft 455 kts 197°
2026-04-14 22:38 31.05695 -64.94641 38520 ft 478 kts 197°
2026-04-14 22:38 31.02601 -64.95559 39094 ft 451 kts 197°
2026-04-14 22:39 30.99601 -64.96458 39965 ft 443 kts 197°
2026-04-14 22:39 30.96629 -64.97324 40282 ft 448 kts 197°
2026-04-14 22:39 30.93661 -64.98198 40260 ft 457 kts 197°
2026-04-14 22:40 30.87322 -65.00067 40245 ft 476 kts 197°
2026-04-14 22:40 30.80762 -65.01999 40230 ft 493 kts 197°
2026-04-14 22:41 30.73993 -65.03991 40230 ft 510 kts 196°
2026-04-14 22:41 30.66990 -65.06047 40226 ft 527 kts 196°
2026-04-14 22:42 30.59805 -65.08155 40223 ft 539 kts 196°
2026-04-14 22:42 30.52567 -65.10274 40220 ft 544 kts 196°
2026-04-14 22:43 30.45211 -65.12425 40216 ft 546 kts 196°
2026-04-14 22:43 30.38531 -65.14375 40210 ft 546 kts 196°
2026-04-14 22:44 30.31800 -65.16338 40213 ft 545 kts 196°
2026-04-14 22:44 30.24389 -65.18496 40204 ft 545 kts 196°
2026-04-14 22:45 30.17042 -65.20631 40212 ft 545 kts 196°
2026-04-14 22:45 30.09682 -65.22768 40218 ft 544 kts 196°
2026-04-14 22:46 30.02319 -65.24902 40220 ft 544 kts 196°
2026-04-14 22:46 29.94974 -65.27027 40212 ft 545 kts 196°
2026-04-14 22:47 29.87592 -65.29160 40207 ft 545 kts 196°
2026-04-14 22:47 29.80220 -65.31287 40203 ft 544 kts 196°
2026-04-14 22:48 29.72894 -65.33397 40202 ft 544 kts 196°
2026-04-14 22:48 29.65535 -65.35513 40202 ft 544 kts 196°
2026-04-14 22:49 29.58176 -65.37627 40200 ft 545 kts 196°
2026-04-14 22:49 29.50790 -65.39745 40191 ft 545 kts 196°
2026-04-14 22:50 29.43442 -65.41836 40185 ft 546 kts 194°
2026-04-14 22:50 29.35873 -65.42695 40175 ft 547 kts 186°
2026-04-14 22:51 29.28262 -65.43341 40181 ft 547 kts 186°
2026-04-14 22:51 29.20665 -65.43986 40180 ft 547 kts 186°
2026-04-14 22:52 29.13024 -65.44632 40179 ft 547 kts 186°
2026-04-14 22:52 29.05444 -65.45274 40171 ft 547 kts 186°
2026-04-14 22:53 28.97868 -65.45912 40173 ft 547 kts 186°
2026-04-14 22:53 28.90235 -65.46556 40165 ft 547 kts 186°
2026-04-14 22:54 28.82653 -65.47195 40162 ft 547 kts 186°
2026-04-14 22:54 28.75036 -65.47834 40163 ft 547 kts 186°
2026-04-14 22:55 28.67428 -65.48473 40159 ft 547 kts 185°
2026-04-14 22:55 28.59859 -65.49107 40157 ft 546 kts 186°
2026-04-14 22:56 28.52229 -65.49746 40156 ft 546 kts 185°
2026-04-14 22:56 28.44640 -65.50381 40157 ft 546 kts 185°
2026-04-14 22:57 28.37048 -65.51014 40154 ft 546 kts 185°
2026-04-14 22:57 28.29473 -65.51645 40149 ft 546 kts 185°
2026-04-14 22:58 28.28198 -65.51751 40149 ft 546 kts 185°
2026-04-14 22:58 28.14316 -65.52905 40147 ft 545 kts 185°
2026-04-14 22:59 28.06689 -65.53538 40143 ft 545 kts 185°
2026-04-14 22:59 27.99153 -65.54163 40143 ft 544 kts 185°
2026-04-14 23:00 27.91564 -65.54791 40141 ft 545 kts 185°
2026-04-14 23:00 27.84026 -65.55413 40134 ft 545 kts 185°
2026-04-14 23:01 27.76412 -65.56042 40134 ft 545 kts 185°
2026-04-14 23:01 27.68840 -65.56665 40129 ft 544 kts 185°
2026-04-14 23:02 27.61280 -65.57288 40127 ft 543 kts 185°
2026-04-14 23:02 27.53718 -65.57909 40126 ft 542 kts 185°
2026-04-14 23:03 27.46183 -65.58528 40122 ft 542 kts 185°
2026-04-14 23:03 27.38631 -65.59145 40129 ft 545 kts 185°
2026-04-14 23:04 27.31076 -65.59765 40118 ft 546 kts 184°
2026-04-14 23:04 27.23451 -65.60387 40119 ft 546 kts 184°
2026-04-14 23:05 27.15893 -65.61003 40116 ft 545 kts 184°
2026-04-14 23:05 27.08326 -65.61620 40114 ft 542 kts 185°
2026-04-14 23:06 27.00804 -65.62232 40111 ft 541 kts 185°
2026-04-14 23:06 26.93240 -65.62847 40106 ft 541 kts 185°
2026-04-14 23:07 26.85747 -65.63455 40107 ft 541 kts 184°
2026-04-14 23:07 26.78200 -65.64067 40101 ft 543 kts 184°
2026-04-14 23:08 26.70618 -65.64681 40105 ft 543 kts 184°
2026-04-14 23:08 26.63134 -65.65286 40105 ft 541 kts 184°
2026-04-14 23:09 26.55581 -65.65896 40095 ft 540 kts 184°
2026-04-14 23:09 26.48070 -65.66501 40098 ft 540 kts 184°
2026-04-14 23:10 26.40567 -65.67106 40087 ft 539 kts 184°
2026-04-14 23:10 26.33086 -65.67707 40082 ft 540 kts 184°
2026-04-14 23:11 26.25602 -65.68308 40088 ft 540 kts 184°
2026-04-14 23:11 26.18073 -65.68912 40086 ft 539 kts 184°
2026-04-14 23:12 26.10582 -65.69511 40073 ft 539 kts 184°
2026-04-14 23:12 26.03077 -65.70112 40083 ft 539 kts 184°
2026-04-14 23:13 25.95568 -65.70713 40077 ft 538 kts 184°
2026-04-14 23:13 25.88127 -65.71307 40071 ft 538 kts 184°
2026-04-14 23:14 25.80626 -65.71903 40073 ft 538 kts 184°
2026-04-14 23:14 25.73160 -65.72498 40088 ft 540 kts 183°
2026-04-14 23:15 25.65644 -65.73095 40073 ft 539 kts 184°
2026-04-14 23:15 25.58127 -65.73692 40072 ft 538 kts 183°
2026-04-14 23:16 25.50626 -65.74287 40066 ft 540 kts 183°
2026-04-14 23:16 25.43073 -65.74886 40073 ft 542 kts 183°
2026-04-14 23:17 25.35530 -65.75481 40063 ft 544 kts 183°
2026-04-14 23:17 25.27942 -65.76080 40054 ft 547 kts 183°
2026-04-14 23:18 25.16542 -65.76981 40057 ft 548 kts 183°
2026-04-14 23:18 25.08878 -65.77583 40050 ft 550 kts 183°
2026-04-14 23:19 25.01243 -65.78184 40054 ft 551 kts 184°
2026-04-14 23:19 24.93556 -65.78788 40039 ft 552 kts 184°
2026-04-14 23:20 24.85893 -65.79390 40044 ft 552 kts 183°
2026-04-14 23:20 24.78188 -65.79994 40039 ft 551 kts 183°
2026-04-14 23:21 24.70551 -65.80590 40033 ft 552 kts 183°
2026-04-14 23:21 24.62905 -65.81187 40037 ft 543 kts 183°
2026-04-14 23:22 24.55426 -65.81773 40023 ft 538 kts 183°
2026-04-14 23:22 24.47990 -65.82350 40027 ft 535 kts 184°
2026-04-14 23:23 24.40576 -65.82928 40011 ft 533 kts 184°
2026-04-14 23:23 24.33313 -65.83494 40023 ft 532 kts 184°
2026-04-14 23:24 24.25939 -65.84067 40005 ft 532 kts 184°
2026-04-14 23:24 24.19113 -65.84596 40016 ft 530 kts 185°
2026-04-14 23:25 24.11699 -65.85171 40010 ft 531 kts 185°
2026-04-14 23:25 24.04300 -65.85744 40013 ft 531 kts 185°
2026-04-14 23:26 23.96954 -65.86313 40003 ft 530 kts 185°
2026-04-14 23:26 23.89589 -65.86881 40006 ft 530 kts 184°
2026-04-14 23:27 23.82200 -65.87451 40010 ft 529 kts 184°
2026-04-14 23:27 23.74848 -65.88017 39999 ft 530 kts 185°
2026-04-14 23:28 23.67457 -65.88587 40001 ft 530 kts 184°
2026-04-14 23:28 23.60090 -65.89153 40015 ft 530 kts 185°
2026-04-14 23:29 23.52721 -65.89719 39998 ft 531 kts 185°
2026-04-14 23:29 23.45328 -65.90287 39992 ft 532 kts 185°
2026-04-14 23:30 23.37925 -65.90854 39992 ft 532 kts 185°
2026-04-14 23:30 23.30831 -65.91397 39988 ft 532 kts 185°
2026-04-14 23:31 23.24434 -65.91886 39992 ft 532 kts 185°
2026-04-14 23:31 23.17018 -65.92453 39974 ft 532 kts 184°
2026-04-14 23:32 23.09632 -65.93017 39997 ft 531 kts 185°
2026-04-14 23:32 23.02274 -65.93577 40014 ft 532 kts 185°
2026-04-14 23:33 22.94835 -65.94143 40010 ft 533 kts 185°
2026-04-14 23:33 22.87437 -65.94707 39995 ft 534 kts 185°
2026-04-14 23:34 22.80018 -65.95270 39986 ft 536 kts 185°
2026-04-14 23:34 22.72539 -65.95837 39992 ft 536 kts 185°
2026-04-14 23:35 22.65084 -65.96402 39976 ft 536 kts 185°
2026-04-14 23:35 22.57619 -65.96968 39990 ft 537 kts 185°
2026-04-14 23:36 22.50174 -65.97530 39996 ft 539 kts 185°
2026-04-14 23:36 22.42647 -65.98099 39978 ft 541 kts 186°
2026-04-14 23:37 22.35094 -65.98670 39972 ft 542 kts 186°
2026-04-14 23:37 22.27539 -65.99239 39985 ft 545 kts 186°
2026-04-14 23:38 22.19976 -65.99810 39985 ft 546 kts 186°
2026-04-14 23:38 22.12338 -66.00384 39982 ft 547 kts 186°
2026-04-14 23:39 22.04717 -66.00957 39984 ft 549 kts 186°
2026-04-14 23:39 21.97097 -66.01529 39979 ft 550 kts 186°
2026-04-14 23:40 21.89428 -66.02104 39982 ft 551 kts 186°
2026-04-14 23:40 21.81779 -66.02676 39991 ft 552 kts 186°
2026-04-14 23:41 21.74135 -66.03249 39974 ft 551 kts 187°
2026-04-14 23:41 21.66458 -66.03822 39983 ft 552 kts 187°
2026-04-14 23:42 21.58829 -66.04391 39980 ft 552 kts 187°
2026-04-14 23:42 21.51200 -66.04961 39975 ft 553 kts 187°
2026-04-14 23:43 21.43751 -66.05891 39977 ft 548 kts 197°
2026-04-14 23:43 21.36261 -66.07752 39969 ft 549 kts 196°
2026-04-14 23:44 21.28852 -66.09575 39958 ft 550 kts 197°
2026-04-14 23:44 21.21373 -66.11414 39962 ft 550 kts 197°
2026-04-14 23:45 21.13861 -66.13258 39962 ft 551 kts 197°
2026-04-14 23:45 21.06382 -66.15093 39964 ft 551 kts 197°
2026-04-14 23:46 20.98894 -66.16929 39969 ft 551 kts 197°
2026-04-14 23:46 20.91386 -66.18767 39965 ft 552 kts 197°
2026-04-14 23:47 20.83918 -66.20594 39961 ft 552 kts 197°
2026-04-14 23:47 20.76391 -66.22433 39963 ft 552 kts 197°
2026-04-14 23:48 20.68879 -66.24266 39954 ft 551 kts 197°
2026-04-14 23:48 20.61382 -66.26093 39963 ft 550 kts 197°
2026-04-14 23:49 20.53893 -66.27919 39968 ft 550 kts 197°
2026-04-14 23:49 20.46386 -66.29745 39963 ft 550 kts 197°
2026-04-14 23:50 20.38887 -66.31569 39965 ft 551 kts 198°
2026-04-14 23:50 20.31370 -66.33394 39964 ft 551 kts 198°
2026-04-14 23:51 20.23926 -66.35200 39963 ft 551 kts 198°
2026-04-14 23:51 20.16420 -66.37019 39963 ft 551 kts 198°
2026-04-14 23:52 20.08910 -66.38837 39963 ft 550 kts 198°
2026-04-14 23:52 20.01445 -66.40643 39969 ft 550 kts 198°
2026-04-14 23:53 19.93966 -66.42451 39972 ft 550 kts 198°
2026-04-14 23:53 19.86554 -66.44241 39975 ft 550 kts 198°
2026-04-14 23:54 19.78915 -66.46083 39973 ft 550 kts 198°
2026-04-14 23:54 19.71726 -66.47816 39980 ft 550 kts 198°
2026-04-14 23:55 19.65589 -66.49293 39974 ft 550 kts 198°
2026-04-14 23:56 19.58196 -66.50293 39981 ft 564 kts 179°